Regional Weather Roundup
Issued by NWS

Home | Current Version | Previous Version | Graphics & Text | Print | Product List | Glossary On
Versions: 1 2 3 4 5 6 7 8 9 10 11 12 13 14 15 16 17 18 19 20 21 22 23 24 25 26 27 28 29 30 31 32 33 34 35 36 37 38 39 40 41 42 43 44 45 46 47 48 49 50
000
ASUS43 KIND 170259
RWRIN

WEATHER ROUNDUP FOR INDIANA
NATIONAL WEATHER SERVICE INDIANAPOLIS IN
1000 PM EST FRI FEB 16 2018

NOTE: "FAIR" INDICATES FEW OR NO CLOUDS BELOW 12,000 FEET WITH NO
SIGNIFICANT WEATHER AND/OR OBSTRUCTIONS TO VISIBILITY.

* - STATION DOES NOT REPORT WEATHER SUCH AS PRECIPITATION OR FOG.

+ - STATION NOT QUALITY CONTROLLED BY THE NATIONAL WEATHER SERVICE.
    USE DATA WITH CAUTION...ESPECIALLY DEWPOINT AND RELATIVE
    HUMIDITY OBSERVATIONS.

INZ001>003-010>013-019-020-170400-
NORTHWEST INDIANA

CITY           SKY/WX    TMP DP  RH WIND       PRES   REMARKS
GARY /AIRPORT/ CLEAR     27  12  54 W7        30.30F WCI  19
KNOX *+        FAIR      28  19  69 W9        30.28F WCI  20
MICHIGAN CITY+ FAIR      21  19  93 CALM      30.28F
MONTICELLO +   FAIR      28  24  84 W7        30.30R WCI  21
RENSSELAER +   FAIR      28  19  69 NW3       30.29F

$$

LMZ046-743>745-170400-
SOUTHERN LAKE MICHIGAN

STATION/POSITION TIME  TEMP    WIND        PRES    WAVE
                       AIR SEA DIR/SP/G            HT
                 (UTC) (F)     (DEG/KT/KT) (MB)    (FT)
BURNS HARBOR     0240   27     240/  6/  7 1025.7F
MICHIGAN CITY    0230   27     160/  2/  3   N/A

$$

INZ004-005-014>016-021>024-170400-
NORTH CENTRAL INDIANA

CITY           SKY/WX    TMP DP  RH WIND       PRES   REMARKS
GOSHEN         CLOUDY    26  21  81 CALM      30.27S
PERU/GRISSOM   CLOUDY    29  28  99 SW3       30.28R
ROCHESTER +    CLOUDY    32  27  80 W5        30.29S WCI  27
SOUTH BEND     FAIR      20  16  84 S3        30.27F
WARSAW +       CLOUDY    28  21  74 CALM      30.27S

$$

INZ006>009-017-018-025>027-170400-
NORTHEAST INDIANA

CITY           SKY/WX    TMP DP  RH WIND       PRES   REMARKS
AUBURN +       FAIR      27  21  80 CALM      30.28S
FORT WAYNE     FAIR      29  22  75 CALM      30.28S
KENDALLVILLE + MOCLDY    24  21  89 CALM      30.26S

$$

INZ028-029-035-036-043>045-051>053-170400-
WEST CENTRAL INDIANA

CITY           SKY/WX    TMP DP  RH WIND       PRES   REMARKS
CRAWFORDSVL +  MOCLDY    28  24  87 CALM      30.30S
GREENCASTLE +  FAIR      30  25  80 CALM      30.29F
LAFAYETTE      FAIR      27  23  85 NW3       30.30S
TERRE HAUTE    FAIR      28  25  88 CALM      30.30F

$$

INZ030>032-037>040-046>048-054>057-064-065-170400-
CENTRAL INDIANA

CITY           SKY/WX    TMP DP  RH WIND       PRES   REMARKS
COLUMBUS       CLOUDY    32  21  64 CALM      30.32S
FRANKFORT +    MOCLDY    32  27  83 NW6       30.31R WCI  26
GREENWOOD *+   FAIR     N/A N/A N/A CALM      30.30S
INDIANAPOLIS   MOCLDY    33  23  66 VRB5      30.29F WCI  29
-EAGLE CREEK   FAIR      31  22  69 CALM      30.29S
KOKOMO +       CLOUDY    30  25  81 S6        30.30R WCI  24
MARION +       FAIR      27  23  85 CALM      30.30R
MT COMFORT *+  FAIR      28  25  86 CALM      30.30S
SHELBYVILLE    CLOUDY    34  25  69 CALM      30.30S
ZIONSVILLE +   CLOUDY    30  24  79 CALM      30.29S

$$

INZ033-034-041-042-049-050-058-059-170400-
EAST CENTRAL INDIANA

CITY           SKY/WX    TMP DP  RH WIND       PRES   REMARKS
MUNCIE         CLOUDY    33  22  63 W3        30.28F
RICHMOND +     CLOUDY    30  23  74 CALM      30.28S

$$

INZ060-061-067>069-081>083-085>088-170400-
SOUTHWEST INDIANA

CITY           SKY/WX    TMP DP  RH WIND       PRES   REMARKS
EVANSVILLE     CLOUDY    37  32  82 CALM      30.31F
HUNTINGBURG +  CLOUDY    37  28  70 CALM      30.31F
WASHINGTON +   MOCLDY    35  26  70 E3        30.30S

$$

INZ062-063-066-070>080-084-089>092-170400-
SOUTH CENTRAL AND SOUTHEAST INDIANA

CITY           SKY/WX    TMP DP  RH WIND       PRES   REMARKS
BLOOMINGTON    CLOUDY    35  26  69 NE6       30.28F WCI  30
FRENCH LICK *+ CLOUDY    36  25  64 CALM      30.29F
MADISON *+     CLOUDY    36  27  69 N5        30.32S WCI  32
SEYMOUR +      CLOUDY    36  23  60 N5        30.31F WCI  32

$$





USA.gov is the U.S. government's official web portal to all federal, state and local government web resources and services.